EHI
26 24 22 22 25 31 37 43 46 44 41 40 39 36 29 21 14 12 12 13 12 10 8 8 10 12 13 14 14 11 8 5 2 1 0 1 4 5 6 8 6 5 7
22 22 21 21 22 25 30 37 41 41 37 33 32 29 21 14 12 11 11 11 11 10 8 6 8 11 12 11 10 9 6 4 1 1 0 0 1 2 4 6 5 4 6
17 17 16 16 17 19 25 30 36 34 28 22 19 16 12 9 9 10 10 9 9 8 7 5 7 9 9 8 6 5 5 2 1 1 1 1 1 0 1 3 3 4 4
12 12 12 12 12 16 22 28 31 26 19 14 10 8 8 7 8 10 10 9 7 6 5 6 7 8 7 5 4 4 4 2 0 0 1 1 1 0 0 1 2 3 3
8 10 11 11 10 11 17 24 24 18 12 8 7 7 7 7 7 8 8 7 7 5 4 5 7 6 5 5 4 4 3 1 0 0 0 1 1 0 0 1 1 2 3
7 9 13 14 10 8 10 15 15 10 5 4 5 7 7 5 4 4 4 4 5 4 2 3 5 5 5 5 4 4 3 1 0 0 0 0 0 0 0 0 0 1 1
6 9 13 13 8 5 5 8 9 5 2 2 4 4 4 2 2 2 1 1 2 2 1 2 3 4 4 4 4 4 3 1 1 0 0 0 0 1 1 1 0 0 0
5 8 10 9 6 3 3 4 5 4 3 2 3 2 1 1 0 0 0 0 0 0 1 1 2 2 2 2 2 3 2 2 2 1 0 0 0 1 1 1 0 0 0
6 7 7 5 4 2 2 1 2 3 3 2 2 1 0 0 0 0 0 0 0 0 0 1 1 0 0 0 1 1 1 1 1 1 0 0 0 0 1 1 0 0 0
6 5 3 3 2 1 1 1 2 2 2 1 1 1 0 0 0 0 0 0 0 0 0 0 0 0 0 0 0 0 0 0 0 0 0 0 0 0 0 0 0 0 0
5 2 1 1 1 0 1 1 1 1 1 1 0 0 0 0 0 0 0 0 0 0 0 0 0 0 0 0 0 0 0 0 0 0 0 0 0 0 0 0 0 0 1
3 1 0 0 0 0 1 1 1 0 0 0 0 0 0 0 0 0 0 0 0 0 0 0 0 0 0 0 0 0 0 0 0 0 0 0 0 0 0 0 0 0 1
1 0 0 0 0 0 0 0 0 0 0 0 0 0 0 0 0 0 0 0 0 0 0 0 0 0 0 0 0 0 0 0 0 0 0 0 0 0 0 0 0 0 1
0 0 1 0 0 0 0 0 0 0 0 0 0 0 0 0 0 0 0 0 0 0 0 0 0 0 0 0 0 0 0 0 0 0 0 0 0 0 0 0 0 0 0
0 1 2 1 1 0 0 0 0 0 0 0 0 0 0 0 0 0 0 0 0 0 0 0 0 0 0 0 0 0 0 0 0 0 0 0 0 0 0 0 0 0 0
0 1 2 3 2 1 1 0 0 0 0 0 0 0 0 0 0 0 0 0 0 0 0 0 0 0 0 0 0 0 0 0 0 0 0 0 0 0 0 0 0 0 0
1 2 3 4 3 3 2 1 0 0 0 0 0 0 0 0 0 0 0 0 0 0 0 0 0 0 0 0 0 0 0 0 0 0 0 0 0 0 0 0 0 0 0
3 4 5 4 3 3 3 2 1 0 0 0 0 0 0 0 0 0 0 0 0 0 0 0 0 0 0 0 0 0 0 0 0 0 0 0 0 0 0 0 0 0 0
4 5 5 4 4 4 3 2 1 0 0 0 0 0 0 0 0 0 1 1 2 1 0 0 0 0 0 0 0 0 0 0 0 0 0 0 0 0 0 0 0 0 0
4 5 5 5 5 5 5 3 1 0 0 0 0 0 0 0 0 1 2 3 3 2 0 0 0 0 0 0 0 0 0 0 0 0 0 0 0 0 0 0 0 0 0
2 4 5 6 7 7 7 5 3 1 0 0 0 1 1 0 0 1 3 3 3 1 0 0 0 0 0 0 0 0 0 0 0 0 0 0 0 0 0 0 0 0 0
1 2 5 8 8 8 9 8 6 3 1 1 1 2 3 2 1 2 3 3 2 1 0 0 0 0 0 0 0 0 0 0 0 0 0 0 0 0 0 0 0 0 0
2 3 5 8 9 9 10 10 8 5 4 3 3 4 5 4 3 3 3 2 2 1 0 0 0 0 0 0 0 0 0 0 0 0 0 0 0 0 0 0 0 0 0
3 4 6 7 8 9 10 10 9 8 6 6 5 5 5 4 4 3 2 1 1 0 0 0 0 0 0 1 0 0 0 0 0 0 0 0 0 0 0 0 0 0 0
8 7 6 7 7 9 9 9 10 10 8 7 6 5 4 4 4 3 2 0 0 0 0 0 0 0 0 0 0 0 0 0 0 0 0 0 0 0 0 0 0 0 0
11 10 7 6 7 9 9 9 10 10 9 7 6 5 4 4 4 3 1 0 0 0 0 0 0 0 0 0 0 0 0 0 0 0 0 0 0 0 0 0 0 0 0
Wind_Speed
10 10 9 9 9 7 6 5 5 3 2 2 2 1 1 1 1 0 2 1 1 1 2 3 1 2 3 3 3 3 4 4 3 3 4 5 7 7 6 6 6 8 10
9 9 8 8 7 6 5 5 4 4 3 2 2 1 1 2 1 1 1 1 1 2 3 2 2 2 2 3 3 2 2 3 3 3 3 3 4 5 8 7 7 8 7
9 8 7 7 6 6 5 5 5 4 4 4 3 3 2 2 1 1 0 1 2 2 2 3 2 3 3 2 2 2 3 3 3 3 3 3 3 2 2 5 6 6 5
9 7 6 6 5 5 6 6 5 4 4 4 4 5 4 4 4 3 2 3 3 3 2 2 2 2 3 4 4 2 2 3 4 3 4 4 2 2 3 3 4 5 5
8 7 6 6 5 4 5 6 5 4 3 3 4 4 5 5 5 5 4 4 4 3 3 2 1 2 3 4 4 4 4 3 4 3 3 3 3 4 3 4 3 3 3
8 7 6 6 5 4 4 6 5 3 3 3 4 4 5 5 5 5 5 4 3 3 3 3 2 3 3 4 4 4 5 4 5 4 4 4 3 3 3 4 3 3 4
8 8 7 6 5 4 4 4 4 3 3 4 4 5 5 5 5 4 5 5 4 4 5 6 4 4 4 5 5 5 5 5 5 5 4 4 4 3 3 3 3 4 3
8 7 7 6 4 4 3 2 3 2 2 3 3 3 4 4 4 6 5 5 4 4 5 5 4 5 5 6 5 5 6 5 5 7 5 4 4 4 4 3 3 3 4
9 8 7 6 4 3 3 2 2 2 2 3 3 3 2 3 4 4 5 4 5 6 6 6 6 6 5 5 6 4 5 6 5 5 6 5 4 4 4 3 3 3 4
8 8 6 5 4 2 1 1 1 1 1 2 3 4 4 4 3 4 4 4 4 5 5 6 6 6 6 6 5 5 5 6 6 5 6 5 5 4 4 4 4 4 4
7 7 6 5 3 1 1 1 0 1 1 1 2 3 3 4 4 4 4 4 4 5 5 5 5 6 6 6 5 6 7 7 6 6 7 6 6 5 4 4 4 4 4
7 7 7 5 3 1 1 1 1 2 2 2 2 2 3 3 4 5 4 5 5 5 6 5 6 6 6 5 6 7 7 6 7 6 7 7 6 6 5 5 5 5 5
6 6 6 4 2 1 1 1 1 2 3 3 4 4 4 4 4 5 4 5 5 5 6 6 6 6 6 6 6 6 6 6 7 7 7 7 7 6 5 5 5 5 6
6 6 5 4 2 1 0 1 1 2 3 3 4 4 4 4 4 5 5 5 5 6 6 5 6 6 6 7 6 6 6 6 6 7 7 7 7 7 6 6 6 6 6
8 7 5 4 3 2 1 0 1 1 2 3 4 3 4 4 4 4 5 5 5 7 6 6 6 6 7 5 4 5 8 7 7 7 7 8 9 8 7 7 5 5 4
8 7 6 5 3 2 1 0 0 1 2 3 4 3 4 4 4 5 5 5 5 6 6 6 7 7 7 4 4 4 6 7 8 8 8 8 10 11 12 13 11 9 7
7 7 6 5 4 2 2 1 1 1 2 2 3 3 4 4 4 6 6 5 5 6 6 6 7 6 5 6 6 6 6 8 8 8 8 9 11 8 6 8 11 12 13
7 7 6 6 5 3 3 1 2 2 2 3 3 3 4 4 5 5 5 5 5 5 5 6 7 6 6 5 6 7 7 9 9 8 8 8 8 9 7 6 6 7 8
7 7 6 6 5 4 3 2 2 3 3 3 3 4 4 5 5 6 5 5 5 6 6 6 6 6 5 5 7 6 6 7 8 8 8 8 7 6 6 6 6 6 6
7 7 7 6 5 4 2 2 3 3 3 3 3 4 4 5 6 6 5 5 5 6 7 6 6 6 6 5 7 7 6 7 7 6 6 7 6 5 5 5 6 6 5
8 8 7 5 5 4 3 3 3 3 3 3 4 4 5 5 6 6 5 5 6 7 7 7 7 7 6 6 8 9 5 6 7 7 5 3 3 4 6 6 5 6 5
9 9 6 5 5 5 4 4 3 3 3 4 5 5 5 7 6 4 5 5 6 7 7 6 7 5 4 4 5 8 9 8 7 7 6 4 3 5 7 6 7 7 5
8 7 7 6 6 5 4 4 3 3 3 4 5 6 6 6 6 6 7 6 5 5 5 5 5 4 3 1 3 6 9 10 7 7 9 9 9 8 8 11 11 8 6
8 7 7 6 5 5 5 4 4 4 4 6 6 6 6 7 6 5 5 5 4 4 4 5 5 4 3 2 2 3 4 5 6 6 8 10 11 10 9 7 7 7 7
7 6 5 5 5 5 5 5 4 4 5 6 6 7 8 8 5 5 5 5 4 4 4 5 5 5 5 3 2 4 5 5 5 6 7 6 5 5 5 5 5 5 5
6 6 6 5 5 5 5 5 5 5 6 6 7 7 7 6 5 5 5 6 7 7 9 9 7 6 7 7 8 8 9 9 7 5 7 6 5 5 5 5 4 4 5
Wind_Direction
111 108 106 105 101 98 97 93 87 73 55 48 6 6 21 350 331 113 97 50 345 350 289 299 287 251 252 257 260 259 264 252 234 240 260 251 235 223 221 219 226 222 215
122 120 122 119 116 120 120 111 93 68 43 36 342 307 332 296 272 49 81 40 354 331 310 340 320 328 310 280 268 256 265 276 258 238 257 266 255 230 224 210 217 227 220
141 139 134 127 127 119 104 91 77 63 39 9 349 354 332 299 4 6 75 28 345 324 322 322 322 327 310 303 296 271 265 272 279 247 245 259 266 303 255 227 223 217 215
146 147 141 126 121 119 112 98 84 65 36 9 12 351 340 346 349 346 6 360 322 298 289 282 299 321 313 310 301 331 299 284 280 271 246 245 268 279 306 292 254 229 221
150 148 137 127 119 113 108 105 91 71 43 7 11 355 356 349 348 345 338 335 305 288 283 292 346 332 303 311 322 323 312 297 288 288 284 269 253 232 240 276 286 276 235
149 141 131 124 123 116 102 98 94 70 37 8 12 9 356 343 329 321 322 329 320 324 352 9 16 321 312 321 313 304 294 286 291 297 296 287 270 249 243 253 261 259 253
149 144 139 135 135 118 91 87 89 64 28 8 17 8 355 327 312 332 348 344 331 340 16 11 357 338 326 310 297 296 284 280 278 274 270 277 279 278 266 267 275 273 275
151 146 145 146 147 130 115 93 90 71 26 3 10 345 333 328 349 4 344 325 322 336 346 343 336 321 310 305 315 309 293 283 277 272 270 272 270 271 270 264 272 282 277
150 150 152 144 133 110 92 59 61 51 13 344 330 288 312 330 337 327 313 327 341 324 347 338 324 315 310 305 302 288 289 289 280 273 271 261 267 271 267 262 246 247 262
150 145 138 126 109 93 88 79 54 16 330 314 318 334 354 336 326 317 322 314 315 322 316 311 310 308 306 300 294 292 287 288 283 272 265 263 260 264 269 267 258 242 243
154 148 141 134 137 158 131 110 14 331 320 313 321 312 311 323 322 310 312 322 319 313 305 304 304 302 296 294 295 289 283 281 280 280 276 267 262 262 269 268 265 257 244
153 146 140 139 145 138 37 14 359 333 334 334 318 310 322 325 324 324 330 320 313 309 307 305 302 298 299 301 297 293 296 296 293 288 284 279 272 260 257 262 264 263 259
142 135 130 134 136 100 45 343 344 337 343 351 335 341 342 339 325 318 314 309 307 305 303 301 300 298 298 294 289 284 288 291 290 289 286 282 277 269 259 256 259 263 265
148 143 135 138 131 117 59 323 346 355 352 352 329 336 334 324 315 312 310 307 306 302 297 297 298 297 296 292 294 298 295 287 286 286 285 281 274 270 266 262 252 253 258
159 155 149 146 149 150 160 262 330 10 349 323 317 327 326 316 309 308 304 301 301 303 304 305 302 299 293 302 333 321 307 310 304 294 287 282 279 273 261 261 257 262 260
166 158 155 153 155 166 186 168 322 339 308 307 313 324 316 312 311 302 294 296 298 299 299 300 299 297 301 326 325 305 307 301 295 291 287 285 276 262 248 243 244 243 249
159 151 151 146 147 160 151 214 254 245 268 287 304 313 312 313 313 310 313 309 307 302 301 298 295 293 292 282 278 272 284 286 283 283 284 285 285 293 277 251 240 240 242
153 147 148 145 150 150 155 202 252 251 261 276 292 307 310 312 311 304 303 304 302 300 295 293 293 292 290 272 262 266 271 278 276 274 274 273 276 282 286 281 266 249 240
138 139 146 146 146 154 158 201 254 261 271 286 305 312 312 307 303 301 302 301 298 296 293 290 287 287 284 259 250 251 281 279 280 280 281 279 276 275 274 267 264 260 258
139 144 148 145 146 148 155 224 254 267 287 305 312 310 304 298 294 291 290 292 289 286 288 287 285 285 285 254 239 235 273 287 292 290 284 282 284 286 278 268 265 261 260
146 148 149 149 151 157 171 228 256 273 292 303 299 293 290 284 277 276 277 281 284 286 284 284 281 275 267 252 236 230 254 283 295 297 297 297 304 287 272 263 262 262 270
158 158 156 157 160 169 186 225 247 267 286 289 288 286 285 287 295 294 282 276 277 283 283 282 281 275 262 250 237 230 238 261 283 291 295 305 293 281 272 260 257 262 266
162 164 166 172 175 179 193 226 240 251 266 274 277 280 283 278 276 277 281 279 271 279 293 298 299 305 310 272 239 240 249 254 261 281 295 300 287 278 265 251 249 249 245
164 172 176 184 185 188 202 218 227 234 252 265 271 273 271 270 267 262 274 284 289 295 303 307 312 316 318 341 353 316 292 273 268 285 293 281 266 259 263 263 240 230 235
168 176 182 191 194 193 204 217 222 227 250 264 270 274 274 272 268 264 260 269 274 271 273 291 301 308 309 327 305 301 306 314 322 318 294 282 274 260 249 245 241 234 228
170 178 190 201 204 203 212 220 222 228 244 260 267 274 280 281 280 280 280 249 245 242 239 242 255 275 271 282 288 287 284 283 287 289 281 283 279 273 266 256 243 234 232